Weather History for KBWI - June, 2014

Change the Weather History Date:

Tuesday, June 10, 2014

  Actual Average Record
Temperature  
Mean Temperature 77 °F 71 °F  
Max Temperature 84 °F 82 °F 97 °F (1964)
Min Temperature 70 °F 60 °F 49 °F (1960)
Degree Days  
Heating Degree Days 0 1  
Month to date heating degree days 2 12  
Since 1 June heating degree days 2 12  
Since 1 July heating degree days 5006 4761  
Cooling Degree Days 12 7  
Month to date cooling degree days 64 56  
Year to date cooling degree days 149 140  
Since 1 June cooling degree days 64 56  
Growing Degree Days 28 (Base 50)    
Moisture  
Dew Point 71 °F    
Average Humidity 76    
Maximum Humidity 93    
Minimum Humidity 58    
Precipitation  
Precipitation 0.36 in 0.11 in 2.33 in (1951)
Month to date precipitation 1.07 1.23  
Year to date precipitation 24.69 18.26  
Snow  
Snow 0.00 in 0.00 in - ()
Month to date snowfall 0.0 0.0  
Since 1 July snowfall 39.0 20.1  
Snow Depth 0.00 in    
Sea Level Pressure  
Sea Level Pressure 29.89 in    
Wind  
Wind Speed 3 mph (SSW)    
Max Wind Speed 12 mph    
Max Gust Speed 20 mph    
Visibility 7 miles    
Events Rain , Thunderstorm    
T = Trace of Precipitation, MM = Missing Value Source: NWS Daily Summary

Daily Weather History Graph

Daily Weather History Graph

Search for Another Location

Airport or City:

Trip Planner

Search our weather history database for the weather conditions in past years. The results will help you decide how hot, cold, wet, or windy it might be!

Date:

Astronomy

Jun. 10, 2014 Rise Set
Actual Time 5:40 AM EDT 8:32 PM EDT
Civil Twilight 5:08 AM EDT 9:04 PM EDT
Nautical Twilight 4:27 AM EDT 9:44 PM EDT
Astronomical Twilight 3:41 AM EDT 10:31 PM EDT
Moon 5:56 PM EDT (6/10) 3:43 AM EDT (6/10)
Length of Visible Light 15h 56m
Length of Day
14h 52m
Waxing Gibbous, 92% of the Moon is Illuminated
Jun 10
Waxing Gibbous
Jun 13
Full
Jun 19
Last Quarter
Jun 27
New
Jul 5
First Quarter

Hourly Weather History & Observations

Time (EDT) Temp. Heat Index Dew Point Humidity Pressure Visibility Wind Dir Wind Speed Gust Speed Precip Events Conditions
12:54 AM 73.0 °F - 70.0 °F 90% 29.88 in 10.0 mi Calm Calm - N/A   Scattered Clouds
1:46 AM 73.4 °F - 69.8 °F 88% 29.87 in 10.0 mi SE 3.5 mph - N/A   Mostly Cloudy
1:54 AM 73.0 °F - 70.0 °F 90% 29.87 in 10.0 mi SE 4.6 mph - N/A   Mostly Cloudy
2:08 AM 73.4 °F - 71.6 °F 94% 29.87 in 10.0 mi Variable 4.6 mph - N/A   Mostly Cloudy
2:54 AM 73.0 °F - 71.1 °F 93% 29.87 in 10.0 mi South 4.6 mph - N/A   Mostly Cloudy
3:20 AM 73.4 °F - 71.6 °F 94% 29.87 in 9.0 mi South 5.8 mph - N/A   Overcast
3:27 AM 73.4 °F - 71.6 °F 94% 29.87 in 9.0 mi SSW 4.6 mph - N/A   Mostly Cloudy
3:47 AM 73.4 °F - 71.6 °F 94% 29.86 in 9.0 mi SSW 5.8 mph - N/A   Mostly Cloudy
3:54 AM 73.0 °F - 71.1 °F 93% 29.86 in 9.0 mi SSW 5.8 mph - N/A   Mostly Cloudy
4:05 AM 73.4 °F - 71.6 °F 94% 29.86 in 9.0 mi SW 4.6 mph - N/A   Overcast
4:54 AM 73.0 °F - 71.1 °F 93% 29.87 in 7.0 mi SSW 4.6 mph - N/A   Overcast
5:54 AM 73.0 °F - 71.1 °F 93% 29.87 in 4.0 mi Calm Calm - N/A   Overcast
6:35 AM 73.4 °F - 71.6 °F 94% 29.88 in 5.0 mi Calm Calm - N/A   Mostly Cloudy
6:45 AM 73.4 °F - 71.6 °F 94% 29.89 in 5.0 mi Calm Calm - N/A   Mostly Cloudy
6:54 AM 73.0 °F - 71.1 °F 93% 29.88 in 5.0 mi Calm Calm - N/A   Mostly Cloudy
7:54 AM 75.0 °F - 71.1 °F 87% 29.89 in 5.0 mi Calm Calm - N/A   Overcast
8:54 AM 75.9 °F - 72.0 °F 87% 29.89 in 6.0 mi Calm Calm - N/A   Overcast
9:54 AM 77.0 °F - 72.0 °F 84% 29.89 in 5.0 mi Calm Calm - N/A   Haze
10:46 AM 75.2 °F - 73.4 °F 94% 29.90 in 4.0 mi SW 8.1 mph - 0.03 in Rain Rain
10:54 AM 71.6 °F - 66.2 °F 83% 29.90 in 2.5 mi West 5.8 mph - N/A Rain Heavy Rain
11:00 AM 71.6 °F - 66.2 °F 83% 29.90 in 1.2 mi NW 5.8 mph - 0.13 in Rain Heavy Rain
11:10 AM 71.6 °F - 68.0 °F 88% 29.91 in 2.0 mi North 4.6 mph - 0.16 in Rain Light Rain
11:25 AM 71.6 °F - 69.8 °F 94% 29.91 in 4.0 mi Calm Calm - 0.18 in Rain Light Rain
11:26 AM 71.6 °F - 69.8 °F 94% 29.91 in 4.0 mi Calm Calm - 0.18 in Rain Light Rain
11:54 AM 73.0 °F - 68.0 °F 84% 29.90 in 8.0 mi Calm Calm - 0.18 in   Mostly Cloudy
12:54 PM 77.0 °F - 71.6 °F 83% 29.90 in 9.0 mi Calm Calm - N/A   Mostly Cloudy
1:54 PM 78.1 °F - 72.0 °F 81% 29.89 in 9.0 mi SW 5.8 mph - N/A   Mostly Cloudy
2:54 PM 80.6 °F 82.7 °F 66.2 °F 61% 29.89 in 10.0 mi SSW 5.8 mph - N/A   Mostly Cloudy
3:54 PM 82.9 °F 85.4 °F 66.9 °F 58% 29.87 in 10.0 mi Calm Calm - N/A   Scattered Clouds
5:54 PM 80.1 °F 82.9 °F 69.1 °F 69% 29.88 in 10.0 mi South 3.5 mph - 0.00 in   Mostly Cloudy
6:24 PM 78.8 °F - 71.6 °F 78% 29.89 in 7.0 mi SW 4.6 mph - 0.01 in Rain , Thunderstorm Light Thunderstorms and Rain
6:54 PM 75.9 °F - 72.0 °F 87% 29.89 in 8.0 mi SSW 4.6 mph - 0.03 in Rain Light Rain
7:54 PM 75.9 °F - 72.0 °F 87% 29.91 in 8.0 mi NNE 8.1 mph - 0.00 in Rain Light Rain
8:54 PM 75.0 °F - 71.1 °F 87% 29.91 in 6.0 mi NE 4.6 mph - 0.00 in   Mostly Cloudy
9:54 PM 73.9 °F - 71.1 °F 91% 29.93 in 6.0 mi NE 3.5 mph - N/A   Scattered Clouds
10:54 PM 73.4 °F - 71.6 °F 94% 29.93 in 5.0 mi Variable 4.6 mph - N/A   Scattered Clouds
11:54 PM 72.0 °F - 70.0 °F 93% 29.94 in 4.0 mi Calm Calm - N/A   Mostly Cloudy